Regional Weather Roundup
Issued by NWS Memphis, TN

Current Version | Previous Version | Text Only | Print | Product List | Glossary On
Versions: 1 2 3 4 5 6 7 8 9 10 11 12 13 14 15 16 17 18 19 20 21 22 23 24 25 26 27 28 29 30 31 32 33 34 35 36 37 38 39 40 41 42 43 44 45 46 47 48 49 50
000
ASUS44 KMEG 251610
RWRMEG
MEMPHIS CWA HOURLY WEATHER ROUNDUP
NATIONAL WEATHER SERVICE MEMPHIS TN
1000 AM CST SUN JAN 25 2015

...WEST TENNESSEE...

CITY           SKY/WX    TMP DP  RH WIND       PRES   REMARKS
MEMPHIS INTL   CLOUDY    48  35  60 SW14G23   29.73S
NWS MEMPHIS      N/A     47 N/A N/A MISG        N/A
JACKSON        CLOUDY    48  36  63 SW16G24   29.70F
LEXINGTON      MOSUNNY   46  36  66 SW14      29.71F
SAVANNAH       SUNNY     48  37  66 S12       29.75F
DYERSBURG      CLOUDY    45  28  53 SW5       29.71R
UNION CITY     PTSUNNY   43  37  81 SW6       29.67S
PARIS          MOSUNNY   43  34  70 S8        29.68S


...EASTERN ARKANSAS...

CITY           SKY/WX    TMP DP  RH WIND       PRES   REMARKS
JONESBORO      LGT RAIN  42  40  92 SW12      29.69S
WEST MEMPHIS   LGT RAIN  44  38  79 SW8       29.73S
BATESVILLE     PTSUNNY   54  39  58 W9        29.70S
NEWPORT        CLOUDY    46  42  86 SW8       29.71S
BLYTHEVILLE    LGT RAIN  44  39  82 SW16      29.70S
SEARCY         PTSUNNY   52  39  61 W9G17     29.74S
STUTTGART      CLOUDY    46  39  76 SW17      29.77R
PINE BLUFF     CLOUDY    48  36  63 SW14G21   29.79S
MONTICELLO     PTSUNNY   50  37  61 W15G24    29.81S


...NORTH MISSISSIPPI...

CITY           SKY/WX    TMP DP  RH WIND       PRES   REMARKS
TUPELO         SUNNY     49  38  65 S9        29.81F
OXFORD         SUNNY     48  36  61 S9G17     29.78F
OLIVE BRANCH   PTSUNNY   46  39  76 SW12G17   29.73F
TUNICA         CLOUDY    45  37  76 SW15      29.78R
CLARKSDALE     CLOUDY    46  39  76 S12       29.79S
CORINTH        PTSUNNY   45  36  70 S14       29.76F
GRENADA        SUNNY     52  37  58 SW9       29.82F
GREENWOOD      SUNNY     51  39  63 SW17      29.83F
COLUMBUS       SUNNY     50  37  61 SW8       29.86F
STARKVILLE     FAIR      50  39  66 SW6       29.86F
GOLDEN TRIANGL SUNNY     50  39  66 SW9       29.86F


...SOUTHEAST MISSOURI...

CITY           SKY/WX    TMP DP  RH WIND       PRES   REMARKS
WEST PLAINS    CLOUDY    47  42  83 W10       29.64F
POPLAR BLUFF   RAIN      41  38  89 SW7       29.64F FOG
CAPE GIRARDEAU LGT RAIN  40  39  97 S6        29.64F


...NORTHWEST ALABAMA...

CITY           SKY/WX    TMP DP  RH WIND       PRES   REMARKS
MUSCLE SHOALS  SUNNY     49  36  61 S7        29.81F


...MIDDLE TENNESSEE...

CITY           SKY/WX    TMP DP  RH WIND       PRES   REMARKS
NASHVILLE      PTSUNNY   45  34  65 S15       29.75F
CLARKSVILLE    CLOUDY    47  35  63 S14       29.70F
COLUMBIA         N/A     48  43  81 S13       29.73F


...WESTERN KENTUCKY...

CITY           SKY/WX    TMP DP  RH WIND       PRES   REMARKS
PADUCAH        LGT RAIN  44  36  73 SW9       29.65F
FORT CAMPBELL  PTSUNNY   47  34  60 S10       29.68F


...CENTRAL ARKANSAS...

CITY           SKY/WX    TMP DP  RH WIND       PRES   REMARKS
LITTLE ROCK    MOSUNNY   51  36  56 W12       29.77S


SKY/WX REPORTED AS FAIR MEANS FEW OR NO CLOUDS BELOW
12 THOUSAND FEET.




USA.gov is the U.S. government's official web portal to all federal, state and local government web resources and services.